Other Surface Observations
Issued by NWS Charleston, SC

Current Version | Previous Version | Text Only | Print | Product List | Glossary On
Versions: 1 2 3 4 5 6 7 8 9 10 11 12 13 14 15 16 17 18 19 20 21 22 23 24 25 26 27 28 29 30 31 32 33 34 35 36 37 38 39 40 41 42 43 44 45 46 47 48 49 50
740
SXUS52 KCHS 230227
OSOCHS

Marine Observations
National Weather Service Charleston SC
900 PM EST THU FEB 22 2018

...Downtown Charleston and Harbor...

CITY           SKY/WX    TMP DP  RH WIND       PRES   REMARKS
Waterfront Prk   N/A     64  62  93 CALM      30.29S

...Lake Moultrie...

CITY           SKY/WX    TMP DP  RH WIND       PRES   REMARKS
Pinopolis        N/A     66  63  88 VRB2      30.34S

...Lake and Supplemental Coastal Observations...

STATION/POSITION TIME  TEMP    WIND        PRES    WAVE   SWELL
                       AIR SEA DIR/SP/G            HT/PER HT/PER/DIR
                 (UTC) (F)     (DEG/KT/KT) (MB)    (FT/S) (FT/S/D)
Fort Pulaski     0200   66 63  120/  5/  6 1030.7
Sapelo Island    0200   64     100/  3     1030.0
Winyah Bay       0145   65     190/  3     1031.0S
Lake Murray      0220   67     160/  3/  3 1029.1
ACE Basin NERRS  0145   62        CALM     1030.0S


...C-MAN and Buoy Observations...

STATION/POSITION TIME  TEMP    WIND        PRES    WAVE   SWELL
                       AIR SEA DIR/SP/G            HT/PER HT/PER/DIR
                 (UTC) (F)     (DEG/KT/KT) (MB)    (FT/S) (FT/S/D)
Buoy 41004       0210   70 69   60/  2/  4 1030.8
Buoy 41008       0150   63 61   60/  6/  8 1030.3R   4/ 8   3/130/ 8
Folly Beach CMAN 0200   65     130/  8/  9 1031.3S
Pritchards Islan NOT AVBL
Capers NS Buoy   0208   61 64  140/  8/ 10 1030.6R
Fripp NS Buoy    0208   62 63  110/  6/ 10 1028.9F
5E St. Marys GA  0200      66                N/A     3/ 8   2/ 90/17


STATION/POSITION TIME  TEMP    WIND        PRES    WAVE   SWELL
                       AIR SEA DIR/SP/G            HT/PER HT/PER/DIR
                 (UTC) (F)     (DEG/KT/KT) (MB)    (FT/S) (FT/S/D)
Frying Pan Buoy  0210   71 71  180/  8/  8 1031.3
Buoy 41025       0210   73 76  200/ 12/ 14 1031.7
Cape Lookout NC  0200          180/  6/  6 1031.5R
Buoy 41002       0150   72 74  140/  6/  8 1032.5R   5/ 9   5/110/ 9
Buoy 41010       NOT AVBL
St Augustine FL  0200   69 69  100/  8/  9 1029.7R

$$




USA.gov is the U.S. government's official web portal to all federal, state and local government web resources and services.